DSX (44344 NORAD) Tracking and Keplerian Element Data

This shows tracking and keplerian element data for the satellite.

Feedback or suggestion? Click here.




ElementValue
Catalog44344
NameDSX
Epoch Orbit123
Epoch Day203.48108345
Epoch Year2019
RAAN193.7897
Inclination42.2073
Eccentricity0.1958775
Argument of Perigee11.729
Mean Anonmoly352.2544
Mean Motion4.54371395
Decay Rate1.4E-07
L11 44344U 19036F 19203.48108345 .00000014 00000-0 00000-0 0 9991
L22 44344 42.2073 193.7897 1958775 11.7290 352.2544 4.54371395 1237

Live tracking and technical data element details for DSX (NORAD 44344). DSX can be tracked NOW for your location showing map with azimuth and elevation plus other details from your city location.

Track the satellite on the map from your city or location and see movement details for azimuth, elevation, latitude, longitude, range, height, and movement on the map or in text.







IsCatalogInMostPopularTable: catalog: 44344, numindb: 24
Update: records affected: 1



GetName: 44344 DSX

Hit Count: updated at: Thu, 12 Dec 2019 00:05:48 GMT